Location: Auttagershofen
(48.1940°N, 10.0237°E)
Time: 17:59:38
(UTC+00:00)

Timation 2 Rocket - Pass Details

Date: 18 January 2026
Orbit: 907 x 1072 km, 70.0° (Epoch: 18 February)

Event Time Altitude Azimuth Distance (km) Brightness Sun altitude
Rises 04:42:08 0° 206° (SSW) 3,781 6.9 -23.1°
Reaches altitude 10° 04:44:46 10° 207° (SSW) 2,811 6.2 -22.6°
Maximum altitude 04:51:21 89° 125° (SE) 1,001 4.0 -21.5°
Drops below altitude 10° 04:57:42 10° 30° (NNE) 2,710 6.6 -20.5°
Sets 05:00:11 0° 30° (NNE) 3,637 7.3 -20.1°
